Time,TemperatureF,DewpointF,PressureIn,WindDirection,WindDirectionDegrees,WindSpeedMPH,WindSpeedGustMPH,Humidity,HourlyPrecipIn,Conditions,Clouds,dailyrainin,SoftwareType,DateUTC
2013-06-20 00:00:00,58.6,53.8,30.22,South,184,0.0,0.9,84,0.00,,,0.00,meteobridge,2013-06-20 04:00:00,
2013-06-20 00:01:00,58.6,53.8,30.22,South,184,0.0,0.0,84,0.00,,,0.00,meteobridge,2013-06-20 04:01:00,
2013-06-20 00:02:00,58.6,53.8,30.22,South,184,0.0,0.0,84,0.00,,,0.00,meteobridge,2013-06-20 04:02:00,
2013-06-20 00:07:00,58.5,53.6,30.23,South,184,0.0,0.0,84,0.00,,,0.00,meteobridge,2013-06-20 04:07:00,
2013-06-20 00:12:00,58.5,54.0,30.23,South,184,0.0,0.0,85,0.00,,,0.00,meteobridge,2013-06-20 04:12:00,
2013-06-20 00:18:00,58.3,53.8,30.23,South,184,0.0,0.0,85,0.00,,,0.00,meteobridge,2013-06-20 04:18:00,
2013-06-20 00:23:00,57.9,53.4,30.23,South,184,0.0,0.0,85,0.00,,,0.00,meteobridge,2013-06-20 04:23:00,
2013-06-20 00:28:00,57.7,53.2,30.23,South,184,0.0,0.0,85,0.00,,,0.00,meteobridge,2013-06-20 04:28:00,
2013-06-20 00:33:00,57.6,53.4,30.23,South,184,0.0,0.0,86,0.00,,,0.00,meteobridge,2013-06-20 04:33:00,
2013-06-20 00:38:00,57.4,53.6,30.24,South,184,0.0,0.0,87,0.00,,,0.00,meteobridge,2013-06-20 04:38:00,
2013-06-20 00:43:00,57.4,53.8,30.24,South,184,0.0,0.0,88,0.00,,,0.00,meteobridge,2013-06-20 04:43:00,
2013-06-20 00:49:00,57.0,53.4,30.24,South,184,0.0,0.0,88,0.00,,,0.00,meteobridge,2013-06-20 04:49:00,
2013-06-20 00:54:00,56.8,53.2,30.24,South,184,0.0,0.0,88,0.00,,,0.00,meteobridge,2013-06-20 04:54:00,
2013-06-20 00:59:00,56.8,53.6,30.24,South,184,0.0,0.0,89,0.00,,,0.00,meteobridge,2013-06-20 04:59:00,
2013-06-20 01:04:00,56.7,53.4,30.24,South,184,0.0,0.0,89,0.00,,,0.00,meteobridge,2013-06-20 05:04:00,
2013-06-20 01:09:00,56.7,53.8,30.24,South,184,0.0,0.0,90,0.00,,,0.00,meteobridge,2013-06-20 05:09:00,
2013-06-20 01:14:00,56.5,53.6,30.24,South,184,0.0,0.0,90,0.00,,,0.00,meteobridge,2013-06-20 05:14:00,
2013-06-20 01:20:00,56.1,53.2,30.24,South,184,0.0,0.0,90,0.00,,,0.00,meteobridge,2013-06-20 05:20:00,
2013-06-20 01:25:00,56.1,53.2,30.24,South,184,0.0,0.0,90,0.00,,,0.00,meteobridge,2013-06-20 05:25:00,
2013-06-20 01:30:00,56.1,53.6,30.24,South,184,0.0,0.0,91,0.00,,,0.00,meteobridge,2013-06-20 05:30:00,
2013-06-20 01:35:00,56.3,54.0,30.24,South,184,0.0,0.0,92,0.00,,,0.00,meteobridge,2013-06-20 05:35:00,
2013-06-20 01:40:00,56.1,53.8,30.25,South,184,0.0,0.0,92,0.00,,,0.00,meteobridge,2013-06-20 05:40:00,
2013-06-20 01:45:00,56.1,53.8,30.25,South,184,0.0,0.0,92,0.00,,,0.00,meteobridge,2013-06-20 05:45:00,
2013-06-20 01:51:00,55.9,53.6,30.26,South,184,0.0,0.0,92,0.00,,,0.00,meteobridge,2013-06-20 05:51:00,
2013-06-20 01:56:00,55.9,53.6,30.26,South,184,0.0,0.9,92,0.00,,,0.00,meteobridge,2013-06-20 05:56:00,
2013-06-20 02:01:00,56.1,53.8,30.26,WNW,287,0.0,2.0,92,0.00,,,0.00,meteobridge,2013-06-20 06:01:00,
2013-06-20 02:06:00,56.3,54.3,30.26,WNW,287,0.0,0.0,93,0.00,,,0.00,meteobridge,2013-06-20 06:06:00,
2013-06-20 02:11:00,56.5,54.1,30.26,WNW,287,0.0,0.0,92,0.00,,,0.00,meteobridge,2013-06-20 06:11:00,
2013-06-20 02:16:00,56.3,54.0,30.26,WNW,287,0.0,0.0,92,0.00,,,0.00,meteobridge,2013-06-20 06:16:00,
2013-06-20 02:22:00,56.3,54.0,30.26,WNW,287,0.9,0.9,92,0.00,,,0.00,meteobridge,2013-06-20 06:22:00,
2013-06-20 02:27:00,56.5,54.5,30.25,WNW,287,0.0,0.0,93,0.00,,,0.00,meteobridge,2013-06-20 06:27:00,
2013-06-20 02:32:00,56.3,54.0,30.25,WNW,287,0.0,0.0,92,0.00,,,0.00,meteobridge,2013-06-20 06:32:00,
2013-06-20 02:37:00,56.1,53.8,30.25,WNW,287,0.0,0.0,92,0.00,,,0.00,meteobridge,2013-06-20 06:37:00,
2013-06-20 02:42:00,56.1,53.8,30.25,WNW,287,0.0,0.0,92,0.00,,,0.00,meteobridge,2013-06-20 06:42:00,
2013-06-20 02:47:00,55.9,54.0,30.25,WNW,287,0.0,0.0,93,0.00,,,0.00,meteobridge,2013-06-20 06:47:00,
2013-06-20 02:52:00,55.9,54.0,30.25,WNW,287,0.0,0.0,93,0.00,,,0.00,meteobridge,2013-06-20 06:52:00,
2013-06-20 02:57:00,55.8,53.8,30.25,WNW,287,0.0,0.0,93,0.00,,,0.00,meteobridge,2013-06-20 06:57:00,
2013-06-20 03:02:00,55.8,53.8,30.25,WNW,287,0.0,0.0,93,0.00,,,0.00,meteobridge,2013-06-20 07:02:00,
2013-06-20 03:08:00,55.6,53.6,30.25,WNW,287,0.0,0.0,93,0.00,,,0.00,meteobridge,2013-06-20 07:08:00,
2013-06-20 03:13:00,55.4,53.4,30.26,WNW,287,0.0,0.0,93,0.00,,,0.00,meteobridge,2013-06-20 07:13:00,
2013-06-20 03:18:00,55.4,53.8,30.26,WNW,287,0.0,0.0,94,0.00,,,0.00,meteobridge,2013-06-20 07:18:00,
2013-06-20 03:23:00,55.4,53.8,30.26,WNW,287,0.0,0.0,94,0.00,,,0.00,meteobridge,2013-06-20 07:23:00,
2013-06-20 03:28:00,55.4,53.8,30.26,WNW,284,0.9,2.0,94,0.00,,,0.00,meteobridge,2013-06-20 07:28:00,
2013-06-20 03:33:00,55.6,54.0,30.26,WNW,284,0.0,0.9,94,0.00,,,0.00,meteobridge,2013-06-20 07:33:00,
2013-06-20 03:39:00,55.6,54.0,30.26,WNW,284,0.0,0.0,94,0.00,,,0.00,meteobridge,2013-06-20 07:39:00,
2013-06-20 03:44:00,55.6,54.0,30.26,WNW,284,0.0,0.0,94,0.00,,,0.00,meteobridge,2013-06-20 07:44:00,
2013-06-20 03:50:00,55.6,54.0,30.26,WNW,284,0.0,0.9,94,0.00,,,0.00,meteobridge,2013-06-20 07:50:00,
2013-06-20 03:55:00,55.6,54.1,30.26,WNW,284,0.0,0.0,95,0.00,,,0.00,meteobridge,2013-06-20 07:55:00,
2013-06-20 04:00:00,55.6,54.1,30.26,WNW,284,0.0,0.0,95,0.00,,,0.00,meteobridge,2013-06-20 08:00:00,
2013-06-20 04:05:00,55.6,54.0,30.27,WNW,284,0.0,0.0,94,0.00,,,0.00,meteobridge,2013-06-20 08:05:00,
2013-06-20 04:10:00,55.6,54.0,30.26,WNW,284,0.0,0.0,94,0.00,,,0.00,meteobridge,2013-06-20 08:10:00,
2013-06-20 04:15:00,55.6,54.0,30.27,WNW,284,0.0,0.0,94,0.00,,,0.00,meteobridge,2013-06-20 08:15:00,
2013-06-20 04:20:00,55.6,54.0,30.27,WNW,284,0.0,0.0,94,0.00,,,0.00,meteobridge,2013-06-20 08:20:00,
2013-06-20 04:26:00,55.6,54.0,30.27,WNW,284,0.0,0.0,94,0.00,,,0.00,meteobridge,2013-06-20 08:26:00,
2013-06-20 04:31:00,55.2,53.6,30.27,WNW,284,0.0,0.0,94,0.00,,,0.00,meteobridge,2013-06-20 08:31:00,
2013-06-20 04:36:00,55.2,53.6,30.27,WNW,284,0.0,0.0,94,0.00,,,0.00,meteobridge,2013-06-20 08:36:00,
2013-06-20 04:41:00,55.0,53.4,30.27,WNW,284,0.0,0.0,94,0.00,,,0.00,meteobridge,2013-06-20 08:41:00,
2013-06-20 04:46:00,55.0,53.4,30.27,WNW,284,0.0,0.0,94,0.00,,,0.00,meteobridge,2013-06-20 08:46:00,
2013-06-20 04:51:00,54.9,53.2,30.27,WNW,284,0.0,0.0,94,0.00,,,0.00,meteobridge,2013-06-20 08:51:00,
2013-06-20 04:57:00,54.7,53.1,30.27,WNW,284,0.0,0.0,94,0.00,,,0.00,meteobridge,2013-06-20 08:57:00,
2013-06-20 05:02:00,54.7,53.1,30.28,WNW,284,0.0,0.0,94,0.00,,,0.00,meteobridge,2013-06-20 09:02:00,
2013-06-20 05:07:00,54.5,52.9,30.28,WNW,284,0.0,0.0,94,0.00,,,0.00,meteobridge,2013-06-20 09:07:00,
2013-06-20 05:12:00,54.5,52.9,30.28,WNW,284,0.0,0.0,94,0.00,,,0.00,meteobridge,2013-06-20 09:12:00,
2013-06-20 05:17:00,54.3,52.9,30.28,WNW,284,0.0,0.0,95,0.00,,,0.00,meteobridge,2013-06-20 09:17:00,
2013-06-20 05:22:00,54.1,52.5,30.28,WNW,284,0.0,0.0,94,0.00,,,0.00,meteobridge,2013-06-20 09:22:00,
2013-06-20 05:27:00,54.1,52.7,30.28,WNW,284,0.0,0.0,95,0.00,,,0.00,meteobridge,2013-06-20 09:27:00,
2013-06-20 05:33:00,54.3,52.9,30.29,WNW,284,0.0,0.0,95,0.00,,,0.00,meteobridge,2013-06-20 09:33:00,
2013-06-20 05:38:00,54.5,53.1,30.29,WNW,284,0.0,0.0,95,0.00,,,0.00,meteobridge,2013-06-20 09:38:00,
2013-06-20 05:43:00,54.5,53.1,30.29,WNW,284,0.0,0.0,95,0.00,,,0.00,meteobridge,2013-06-20 09:43:00,
2013-06-20 05:48:00,54.3,52.9,30.29,WNW,284,0.0,0.0,95,0.00,,,0.00,meteobridge,2013-06-20 09:48:00,
2013-06-20 05:53:00,54.1,52.7,30.29,WNW,284,0.0,0.0,95,0.00,,,0.00,meteobridge,2013-06-20 09:53:00,
2013-06-20 05:58:00,54.1,52.7,30.29,WNW,284,0.0,0.0,95,0.00,,,0.00,meteobridge,2013-06-20 09:58:00,
2013-06-20 06:03:00,54.3,53.2,30.30,WNW,284,0.0,0.0,96,0.00,,,0.00,meteobridge,2013-06-20 10:03:00,
2013-06-20 06:08:00,54.5,53.4,30.30,WNW,284,0.0,0.0,96,0.00,,,0.00,meteobridge,2013-06-20 10:08:00,
2013-06-20 06:13:00,54.7,53.6,30.30,WNW,284,0.0,0.0,96,0.00,,,0.00,meteobridge,2013-06-20 10:13:00,
2013-06-20 06:18:00,54.7,53.6,30.30,WNW,284,0.0,0.0,96,0.00,,,0.00,meteobridge,2013-06-20 10:18:00,
2013-06-20 06:24:00,54.7,53.6,30.30,WNW,284,0.0,0.0,96,0.00,,,0.00,meteobridge,2013-06-20 10:24:00,
2013-06-20 06:29:00,54.9,53.8,30.30,WNW,284,0.0,0.0,96,0.00,,,0.00,meteobridge,2013-06-20 10:29:00,
2013-06-20 06:34:00,55.0,54.0,30.30,WNW,284,0.0,0.0,96,0.00,,,0.00,meteobridge,2013-06-20 10:34:00,
2013-06-20 06:39:00,55.2,54.1,30.30,WNW,284,0.0,0.0,96,0.00,,,0.00,meteobridge,2013-06-20 10:39:00,
2013-06-20 06:44:00,55.2,54.1,30.30,WNW,284,0.0,0.0,96,0.00,,,0.00,meteobridge,2013-06-20 10:44:00,
2013-06-20 06:49:00,55.6,54.7,30.30,WNW,284,0.0,0.0,97,0.00,,,0.00,meteobridge,2013-06-20 10:49:00,
2013-06-20 06:54:00,55.9,55.0,30.31,WNW,284,0.0,0.0,97,0.00,,,0.00,meteobridge,2013-06-20 10:54:00,
2013-06-20 07:00:00,56.5,55.6,30.31,WNW,284,0.0,0.0,97,0.00,,,0.00,meteobridge,2013-06-20 11:00:00,
2013-06-20 07:05:00,56.8,55.9,30.30,WNW,284,0.0,0.0,97,0.00,,,0.00,meteobridge,2013-06-20 11:05:00,
2013-06-20 07:10:00,57.4,56.5,30.31,WNW,284,0.0,0.0,97,0.00,,,0.00,meteobridge,2013-06-20 11:10:00,
2013-06-20 07:15:00,57.7,56.8,30.31,WNW,284,0.0,0.0,97,0.00,,,0.00,meteobridge,2013-06-20 11:15:00,
2013-06-20 07:20:00,58.3,57.4,30.31,WNW,284,0.0,0.9,97,0.00,,,0.00,meteobridge,2013-06-20 11:20:00,
2013-06-20 07:26:00,58.8,57.9,30.31,WNW,284,0.0,2.0,97,0.00,,,0.00,meteobridge,2013-06-20 11:26:00,
2013-06-20 07:31:00,59.5,58.6,30.32,WNW,284,0.0,0.9,97,0.00,,,0.00,meteobridge,2013-06-20 11:31:00,
2013-06-20 07:36:00,60.1,59.0,30.32,WNW,284,0.9,2.0,96,0.00,,,0.00,meteobridge,2013-06-20 11:36:00,
2013-06-20 07:41:00,60.6,59.2,30.32,SW,232,0.0,0.9,95,0.00,,,0.00,meteobridge,2013-06-20 11:41:00,
2013-06-20 07:46:00,61.2,59.4,30.32,SSW,200,0.0,2.9,94,0.00,,,0.00,meteobridge,2013-06-20 11:46:00,
2013-06-20 07:51:00,61.9,59.5,30.32,SSW,211,0.0,2.9,92,0.00,,,0.00,meteobridge,2013-06-20 11:51:00,
2013-06-20 07:56:00,62.2,59.2,30.32,SSW,210,0.9,0.9,90,0.00,,,0.00,meteobridge,2013-06-20 11:56:00,
2013-06-20 08:01:00,63.0,59.7,30.32,SSW,211,0.9,2.0,89,0.00,,,0.00,meteobridge,2013-06-20 12:01:00,
2013-06-20 08:06:00,63.3,59.4,30.32,NNW,331,0.9,2.0,87,0.00,,,0.00,meteobridge,2013-06-20 12:06:00,
2013-06-20 08:12:00,64.0,59.4,30.32,NW,320,0.9,0.9,85,0.00,,,0.00,meteobridge,2013-06-20 12:12:00,
2013-06-20 08:17:00,64.6,59.4,30.32,SW,227,0.0,4.0,83,0.00,,,0.00,meteobridge,2013-06-20 12:17:00,
2013-06-20 08:22:00,64.9,59.0,30.32,SW,227,0.9,2.0,81,0.00,,,0.00,meteobridge,2013-06-20 12:22:00,
2013-06-20 08:27:00,65.7,58.3,30.32,WSW,256,2.9,6.9,77,0.00,,,0.00,meteobridge,2013-06-20 12:27:00,
2013-06-20 08:32:00,66.4,58.6,30.32,SSW,209,0.0,2.0,76,0.00,,,0.00,meteobridge,2013-06-20 12:32:00,
2013-06-20 08:37:00,66.7,58.1,30.32,West,271,0.0,0.9,74,0.00,,,0.00,meteobridge,2013-06-20 12:37:00,
2013-06-20 08:43:00,67.3,57.6,30.32,WNW,290,0.0,2.9,71,0.00,,,0.00,meteobridge,2013-06-20 12:43:00,
2013-06-20 08:48:00,67.8,56.8,30.32,South,178,2.0,4.9,68,0.00,,,0.00,meteobridge,2013-06-20 12:48:00,
2013-06-20 08:53:00,68.4,57.0,30.32,West,261,0.0,0.9,67,0.00,,,0.00,meteobridge,2013-06-20 12:53:00,
2013-06-20 08:58:00,68.7,57.4,30.32,WNW,287,2.0,6.0,67,0.00,,,0.00,meteobridge,2013-06-20 12:58:00,
2013-06-20 09:04:00,69.3,57.9,30.32,SW,214,0.0,4.9,67,0.00,,,0.00,meteobridge,2013-06-20 13:04:00,
2013-06-20 09:09:00,69.6,57.7,30.32,SW,221,4.0,4.0,66,0.00,,,0.00,meteobridge,2013-06-20 13:09:00,
2013-06-20 09:14:00,70.0,58.1,30.32,NW,304,0.0,0.9,66,0.00,,,0.00,meteobridge,2013-06-20 13:14:00,
2013-06-20 09:19:00,70.9,59.0,30.32,NW,304,0.9,0.9,66,0.00,,,0.00,meteobridge,2013-06-20 13:19:00,
2013-06-20 09:24:00,71.8,58.1,30.32,WSW,238,0.9,2.9,62,0.00,,,0.00,meteobridge,2013-06-20 13:24:00,
2013-06-20 09:29:00,72.1,59.4,30.32,NW,306,0.0,0.9,64,0.00,,,0.00,meteobridge,2013-06-20 13:29:00,
2013-06-20 09:34:00,72.7,57.9,30.32,SSE,159,0.9,6.9,60,0.00,,,0.00,meteobridge,2013-06-20 13:34:00,
2013-06-20 09:39:00,72.9,58.6,30.32,SSW,198,0.9,4.0,61,0.00,,,0.00,meteobridge,2013-06-20 13:39:00,
2013-06-20 09:45:00,73.0,55.9,30.32,WSW,244,2.9,4.0,55,0.00,,,0.00,meteobridge,2013-06-20 13:45:00,
2013-06-20 09:50:00,73.4,56.3,30.32,NW,315,0.0,4.9,55,0.00,,,0.00,meteobridge,2013-06-20 13:50:00,
2013-06-20 09:55:00,73.6,56.5,30.32,SSW,199,0.0,2.0,55,0.00,,,0.00,meteobridge,2013-06-20 13:55:00,
2013-06-20 10:00:00,74.1,56.8,30.32,WNW,286,0.0,2.0,55,0.00,,,0.00,meteobridge,2013-06-20 14:00:00,
2013-06-20 10:05:00,75.0,57.2,30.32,WNW,296,0.9,2.9,54,0.00,,,0.00,meteobridge,2013-06-20 14:05:00,
2013-06-20 10:10:00,75.9,57.0,30.32,East,90,0.9,2.0,52,0.00,,,0.00,meteobridge,2013-06-20 14:10:00,
2013-06-20 10:15:00,76.5,57.6,30.32,SW,233,0.9,4.0,52,0.00,,,0.00,meteobridge,2013-06-20 14:15:00,
2013-06-20 10:20:00,77.2,57.0,30.32,SSW,212,0.9,6.0,50,0.00,,,0.00,meteobridge,2013-06-20 14:20:00,
2013-06-20 10:25:00,77.2,56.5,30.33,SSW,208,2.9,4.0,49,0.00,,,0.00,meteobridge,2013-06-20 14:25:00,
2013-06-20 10:30:00,77.2,57.0,30.33,NW,321,2.0,2.9,50,0.00,,,0.00,meteobridge,2013-06-20 14:30:00,
2013-06-20 10:35:00,77.5,57.4,30.33,WSW,238,0.9,4.0,50,0.00,,,0.00,meteobridge,2013-06-20 14:35:00,
2013-06-20 10:41:00,77.0,57.0,30.33,West,269,2.0,2.0,50,0.00,,,0.00,meteobridge,2013-06-20 14:41:00,
2013-06-20 10:46:00,77.2,57.7,30.33,SSW,213,2.0,6.9,51,0.00,,,0.00,meteobridge,2013-06-20 14:46:00,
2013-06-20 10:51:00,76.6,58.3,30.33,SSW,209,0.9,4.0,53,0.00,,,0.00,meteobridge,2013-06-20 14:51:00,
2013-06-20 10:56:00,76.8,58.5,30.33,NW,309,0.9,2.9,53,0.00,,,0.00,meteobridge,2013-06-20 14:56:00,
2013-06-20 11:01:00,77.9,59.9,30.33,WNW,288,2.0,2.0,54,0.00,,,0.00,meteobridge,2013-06-20 15:01:00,
2013-06-20 11:06:00,78.1,59.0,30.33,SSW,202,2.9,4.0,52,0.00,,,0.00,meteobridge,2013-06-20 15:06:00,
2013-06-20 11:11:00,78.1,59.5,30.33,NNW,335,0.9,2.0,53,0.00,,,0.00,meteobridge,2013-06-20 15:11:00,
2013-06-20 11:16:00,78.4,59.4,30.33,NE,38,0.9,0.9,52,0.00,,,0.00,meteobridge,2013-06-20 15:16:00,
2013-06-20 11:21:00,79.0,58.8,30.33,SW,236,4.0,4.0,50,0.00,,,0.00,meteobridge,2013-06-20 15:21:00,
2013-06-20 11:26:00,79.0,58.1,30.33,WSW,247,0.9,2.9,49,0.00,,,0.00,meteobridge,2013-06-20 15:26:00,
2013-06-20 11:31:00,79.3,59.0,30.33,NW,321,6.9,6.9,50,0.00,,,0.00,meteobridge,2013-06-20 15:31:00,
2013-06-20 11:36:00,79.5,59.7,30.33,North,355,0.9,4.0,51,0.00,,,0.00,meteobridge,2013-06-20 15:36:00,
2013-06-20 11:41:00,79.3,58.5,30.33,SW,232,2.0,4.0,49,0.00,,,0.00,meteobridge,2013-06-20 15:41:00,
2013-06-20 11:46:00,78.6,58.5,30.32,SSE,151,0.0,4.9,50,0.00,,,0.00,meteobridge,2013-06-20 15:46:00,
2013-06-20 11:51:00,78.6,58.5,30.33,SSE,168,2.0,4.0,50,0.00,,,0.00,meteobridge,2013-06-20 15:51:00,
2013-06-20 11:56:00,78.6,59.5,30.33,West,268,0.0,2.9,52,0.00,,,0.00,meteobridge,2013-06-20 15:56:00,
2013-06-20 12:01:00,79.2,60.1,30.33,SE,129,0.9,4.9,52,0.00,,,0.00,meteobridge,2013-06-20 16:01:00,
2013-06-20 12:06:00,79.3,59.7,30.33,SE,144,0.9,4.0,51,0.00,,,0.00,meteobridge,2013-06-20 16:06:00,
2013-06-20 12:11:00,79.5,58.6,30.33,SW,228,0.9,4.9,49,0.00,,,0.00,meteobridge,2013-06-20 16:11:00,
2013-06-20 12:16:00,79.5,58.1,30.33,SSE,162,4.0,8.9,48,0.00,,,0.00,meteobridge,2013-06-20 16:16:00,
2013-06-20 12:21:00,78.1,56.8,30.33,West,266,2.0,6.0,48,0.00,,,0.00,meteobridge,2013-06-20 16:21:00,
2013-06-20 12:26:00,77.5,57.9,30.32,NNW,331,0.0,2.9,51,0.00,,,0.00,meteobridge,2013-06-20 16:26:00,
2013-06-20 12:32:00,78.6,61.2,30.32,WNW,284,2.0,6.0,55,0.00,,,0.00,meteobridge,2013-06-20 16:32:00,
2013-06-20 12:37:00,79.0,58.8,30.32,South,180,2.9,2.9,50,0.00,,,0.00,meteobridge,2013-06-20 16:37:00,
2013-06-20 12:42:00,79.2,58.3,30.32,NW,317,4.0,4.0,49,0.00,,,0.00,meteobridge,2013-06-20 16:42:00,
2013-06-20 12:47:00,79.9,61.7,30.32,SE,146,6.0,8.1,54,0.00,,,0.00,meteobridge,2013-06-20 16:47:00,
2013-06-20 12:52:00,79.0,62.4,30.32,South,178,4.9,6.9,57,0.00,,,0.00,meteobridge,2013-06-20 16:52:00,
2013-06-20 12:57:00,78.4,63.0,30.32,WNW,290,0.9,2.9,59,0.00,,,0.00,meteobridge,2013-06-20 16:57:00,
2013-06-20 13:02:00,78.3,61.3,30.32,SE,142,2.0,12.1,56,0.00,,,0.00,meteobridge,2013-06-20 17:02:00,
2013-06-20 13:07:00,77.5,62.1,30.32,SSE,162,4.9,6.0,59,0.00,,,0.00,meteobridge,2013-06-20 17:07:00,
2013-06-20 13:12:00,77.2,61.3,30.32,South,176,0.0,6.0,58,0.00,,,0.00,meteobridge,2013-06-20 17:12:00,
2013-06-20 13:17:00,76.6,61.2,30.32,South,175,4.9,8.9,59,0.00,,,0.00,meteobridge,2013-06-20 17:17:00,
2013-06-20 13:22:00,76.3,60.4,30.32,SSW,203,6.0,6.9,58,0.00,,,0.00,meteobridge,2013-06-20 17:22:00,
2013-06-20 13:27:00,75.9,61.0,30.32,SE,137,0.0,4.9,60,0.00,,,0.00,meteobridge,2013-06-20 17:27:00,
2013-06-20 13:32:00,76.1,61.2,30.32,South,182,6.0,8.1,60,0.00,,,0.00,meteobridge,2013-06-20 17:32:00,
2013-06-20 13:37:00,75.9,62.4,30.32,SSE,163,0.0,0.9,63,0.00,,,0.00,meteobridge,2013-06-20 17:37:00,
2013-06-20 13:42:00,75.6,60.3,30.32,South,171,0.0,4.9,59,0.00,,,0.00,meteobridge,2013-06-20 17:42:00,
2013-06-20 13:47:00,75.6,60.3,30.32,East,98,0.9,6.9,59,0.00,,,0.00,meteobridge,2013-06-20 17:47:00,
2013-06-20 13:52:00,75.7,59.0,30.31,ESE,121,0.9,8.1,56,0.00,,,0.00,meteobridge,2013-06-20 17:52:00,
2013-06-20 13:58:00,75.2,58.5,30.31,SSE,158,0.9,6.9,56,0.00,,,0.00,meteobridge,2013-06-20 17:58:00,
2013-06-20 14:03:00,75.0,59.7,30.31,SSE,165,0.0,4.9,59,0.00,,,0.00,meteobridge,2013-06-20 18:03:00,
2013-06-20 14:08:00,76.3,59.9,30.32,SE,126,0.9,6.0,57,0.00,,,0.00,meteobridge,2013-06-20 18:08:00,
2013-06-20 14:13:00,77.4,60.4,30.31,SE,137,2.0,6.0,56,0.00,,,0.00,meteobridge,2013-06-20 18:13:00,
2013-06-20 14:18:00,77.7,59.2,30.31,SW,226,2.9,8.1,53,0.00,,,0.00,meteobridge,2013-06-20 18:18:00,
2013-06-20 14:23:00,78.1,59.5,30.31,ESE,121,8.1,11.0,53,0.00,,,0.00,meteobridge,2013-06-20 18:23:00,
2013-06-20 14:28:00,78.4,59.4,30.31,SE,135,0.9,8.1,52,0.00,,,0.00,meteobridge,2013-06-20 18:28:00,
2013-06-20 14:33:00,78.8,58.6,30.30,South,180,4.0,8.1,50,0.00,,,0.00,meteobridge,2013-06-20 18:33:00,
2013-06-20 14:38:00,78.6,60.6,30.30,SE,134,4.0,4.9,54,0.00,,,0.00,meteobridge,2013-06-20 18:38:00,
2013-06-20 14:43:00,77.9,58.3,30.30,SSW,203,6.0,12.1,51,0.00,,,0.00,meteobridge,2013-06-20 18:43:00,
2013-06-20 14:48:00,77.4,58.3,30.30,East,96,2.0,8.9,52,0.00,,,0.00,meteobridge,2013-06-20 18:48:00,
2013-06-20 14:53:00,77.5,58.5,30.30,SW,217,0.9,6.0,52,0.00,,,0.00,meteobridge,2013-06-20 18:53:00,
2013-06-20 14:58:00,77.9,58.8,30.30,South,188,6.9,8.1,52,0.00,,,0.00,meteobridge,2013-06-20 18:58:00,
2013-06-20 15:03:00,77.9,59.9,30.30,South,172,8.1,12.1,54,0.00,,,0.00,meteobridge,2013-06-20 19:03:00,
2013-06-20 15:08:00,77.7,59.2,30.30,South,169,8.1,13.0,53,0.00,,,0.00,meteobridge,2013-06-20 19:08:00,
2013-06-20 15:14:00,77.7,59.7,30.30,East,80,0.0,4.0,54,0.00,,,0.00,meteobridge,2013-06-20 19:14:00,
2013-06-20 15:19:00,78.1,59.0,30.30,SE,128,6.0,11.0,52,0.00,,,0.00,meteobridge,2013-06-20 19:19:00,
2013-06-20 15:24:00,77.7,57.6,30.30,SE,132,6.0,10.1,50,0.00,,,0.00,meteobridge,2013-06-20 19:24:00,
2013-06-20 15:29:00,77.5,57.4,30.30,WSW,257,0.9,6.9,50,0.00,,,0.00,meteobridge,2013-06-20 19:29:00,
2013-06-20 15:34:00,77.5,57.4,30.30,SE,146,6.0,6.0,50,0.00,,,0.00,meteobridge,2013-06-20 19:34:00,
2013-06-20 15:39:00,77.4,56.1,30.30,SE,138,4.0,13.0,48,0.00,,,0.00,meteobridge,2013-06-20 19:39:00,
2013-06-20 15:44:00,76.8,56.3,30.30,SSE,166,4.0,11.0,49,0.00,,,0.00,meteobridge,2013-06-20 19:44:00,
2013-06-20 15:49:00,77.0,56.3,30.30,SW,222,2.9,6.9,49,0.00,,,0.00,meteobridge,2013-06-20 19:49:00,
2013-06-20 15:54:00,76.8,56.3,30.30,SSW,210,4.9,11.0,49,0.00,,,0.00,meteobridge,2013-06-20 19:54:00,
2013-06-20 15:59:00,76.6,56.7,30.30,South,175,0.9,12.1,50,0.00,,,0.00,meteobridge,2013-06-20 19:59:00,
2013-06-20 16:04:00,76.8,56.8,30.30,South,171,4.0,6.0,50,0.00,,,0.00,meteobridge,2013-06-20 20:04:00,
2013-06-20 16:09:00,77.0,56.3,30.30,WSW,252,2.9,11.0,49,0.00,,,0.00,meteobridge,2013-06-20 20:09:00,
2013-06-20 16:14:00,77.2,56.5,30.30,WSW,242,6.0,8.1,49,0.00,,,0.00,meteobridge,2013-06-20 20:14:00,
2013-06-20 16:19:00,76.6,56.1,30.30,SSE,163,6.9,12.1,49,0.00,,,0.00,meteobridge,2013-06-20 20:19:00,
2013-06-20 16:24:00,76.5,55.9,30.30,WSW,244,2.9,6.9,49,0.00,,,0.00,meteobridge,2013-06-20 20:24:00,
2013-06-20 16:29:00,76.6,56.1,30.30,SE,140,10.1,10.1,49,0.00,,,0.00,meteobridge,2013-06-20 20:29:00,
2013-06-20 16:34:00,76.6,55.4,30.30,SSE,157,2.0,8.9,48,0.00,,,0.00,meteobridge,2013-06-20 20:34:00,
2013-06-20 16:39:00,76.5,55.9,30.30,SW,236,4.0,8.1,49,0.00,,,0.00,meteobridge,2013-06-20 20:39:00,
2013-06-20 16:44:00,76.6,56.7,30.30,South,178,6.0,11.0,50,0.00,,,0.00,meteobridge,2013-06-20 20:44:00,
2013-06-20 16:49:00,76.5,55.9,30.30,SSE,150,8.9,10.1,49,0.00,,,0.00,meteobridge,2013-06-20 20:49:00,
2013-06-20 16:54:00,76.5,56.5,30.30,SSE,165,2.0,8.9,50,0.00,,,0.00,meteobridge,2013-06-20 20:54:00,
2013-06-20 16:59:00,76.6,57.2,30.29,SSE,157,4.9,10.1,51,0.00,,,0.00,meteobridge,2013-06-20 20:59:00,
2013-06-20 17:04:00,76.5,56.5,30.30,SW,224,4.9,8.1,50,0.00,,,0.00,meteobridge,2013-06-20 21:04:00,
2013-06-20 17:09:00,76.1,56.7,30.30,South,170,4.9,6.9,51,0.00,,,0.00,meteobridge,2013-06-20 21:09:00,
2013-06-20 17:14:00,75.9,57.0,30.29,SSW,196,0.0,10.1,52,0.00,,,0.00,meteobridge,2013-06-20 21:14:00,
2013-06-20 17:19:00,75.7,56.3,30.29,WSW,254,4.0,6.9,51,0.00,,,0.00,meteobridge,2013-06-20 21:19:00,
2013-06-20 17:24:00,75.4,55.9,30.30,SSE,160,0.9,6.9,51,0.00,,,0.00,meteobridge,2013-06-20 21:24:00,
2013-06-20 17:29:00,75.0,55.6,30.29,SE,130,4.0,4.9,51,0.00,,,0.00,meteobridge,2013-06-20 21:29:00,
2013-06-20 17:34:00,75.0,56.1,30.29,SW,229,0.0,8.9,52,0.00,,,0.00,meteobridge,2013-06-20 21:34:00,
2013-06-20 17:39:00,74.8,56.1,30.29,SW,221,2.0,4.9,52,0.00,,,0.00,meteobridge,2013-06-20 21:39:00,
2013-06-20 17:44:00,74.7,56.8,30.29,SE,134,6.0,8.9,54,0.00,,,0.00,meteobridge,2013-06-20 21:44:00,
2013-06-20 17:49:00,74.5,57.2,30.29,SSW,210,0.9,8.1,55,0.00,,,0.00,meteobridge,2013-06-20 21:49:00,
2013-06-20 17:54:00,74.1,57.4,30.29,WSW,240,2.9,8.9,56,0.00,,,0.00,meteobridge,2013-06-20 21:54:00,
2013-06-20 17:59:00,74.1,57.4,30.30,SE,124,0.9,6.0,56,0.00,,,0.00,meteobridge,2013-06-20 21:59:00,
2013-06-20 18:05:00,73.9,57.2,30.30,WSW,248,2.0,8.1,56,0.00,,,0.00,meteobridge,2013-06-20 22:05:00,
2013-06-20 18:10:00,73.9,57.7,30.30,ESE,123,4.0,4.0,57,0.00,,,0.00,meteobridge,2013-06-20 22:10:00,
2013-06-20 18:15:00,73.8,58.5,30.30,South,173,4.9,6.9,59,0.00,,,0.00,meteobridge,2013-06-20 22:15:00,
2013-06-20 18:20:00,73.8,59.0,30.30,SSE,168,0.9,4.0,60,0.00,,,0.00,meteobridge,2013-06-20 22:20:00,
2013-06-20 18:25:00,73.6,58.8,30.30,South,181,0.0,4.9,60,0.00,,,0.00,meteobridge,2013-06-20 22:25:00,
2013-06-20 18:30:00,73.6,58.8,30.30,SSE,159,2.0,6.0,60,0.00,,,0.00,meteobridge,2013-06-20 22:30:00,
2013-06-20 18:35:00,73.2,58.5,30.30,South,183,2.0,10.1,60,0.00,,,0.00,meteobridge,2013-06-20 22:35:00,
2013-06-20 18:40:00,73.0,58.3,30.30,SSE,152,8.1,8.1,60,0.00,,,0.00,meteobridge,2013-06-20 22:40:00,
2013-06-20 18:45:00,72.9,57.7,30.30,WSW,256,4.0,6.0,59,0.00,,,0.00,meteobridge,2013-06-20 22:45:00,
2013-06-20 18:50:00,72.9,58.6,30.30,SE,141,2.0,4.0,61,0.00,,,0.00,meteobridge,2013-06-20 22:50:00,
2013-06-20 18:55:00,72.9,58.6,30.30,SSE,152,2.0,2.0,61,0.00,,,0.00,meteobridge,2013-06-20 22:55:00,
2013-06-20 19:00:00,72.7,58.5,30.30,SSE,155,0.9,4.9,61,0.00,,,0.00,meteobridge,2013-06-20 23:00:00,
2013-06-20 19:05:00,72.5,58.3,30.30,SE,131,2.0,4.9,61,0.00,,,0.00,meteobridge,2013-06-20 23:05:00,
2013-06-20 19:10:00,72.1,57.6,30.30,SE,138,2.0,8.1,60,0.00,,,0.00,meteobridge,2013-06-20 23:10:00,
2013-06-20 19:15:00,72.0,56.8,30.30,SW,234,4.9,6.9,59,0.00,,,0.00,meteobridge,2013-06-20 23:15:00,
2013-06-20 19:21:00,71.8,57.2,30.30,South,169,2.0,2.9,60,0.00,,,0.00,meteobridge,2013-06-20 23:21:00,
2013-06-20 19:26:00,71.6,57.0,30.30,SE,140,4.0,4.0,60,0.00,,,0.00,meteobridge,2013-06-20 23:26:00,
2013-06-20 19:31:00,71.4,57.7,30.30,West,269,0.9,2.0,62,0.00,,,0.00,meteobridge,2013-06-20 23:31:00,
2013-06-20 19:36:00,71.2,57.0,30.30,South,172,0.0,2.0,61,0.00,,,0.00,meteobridge,2013-06-20 23:36:00,
2013-06-20 19:41:00,71.1,57.7,30.30,SE,141,0.9,6.0,63,0.00,,,0.00,meteobridge,2013-06-20 23:41:00,
2013-06-20 19:46:00,70.9,56.8,30.30,SW,231,0.9,2.9,61,0.00,,,0.00,meteobridge,2013-06-20 23:46:00,
2013-06-20 19:51:00,70.5,57.7,30.30,South,174,2.0,2.0,64,0.00,,,0.00,meteobridge,2013-06-20 23:51:00,
2013-06-20 19:56:00,70.3,56.3,30.30,SSE,157,0.9,4.0,61,0.00,,,0.00,meteobridge,2013-06-20 23:56:00,
2013-06-20 20:01:00,70.3,56.3,30.30,South,182,0.0,2.9,61,0.00,,,0.00,meteobridge,2013-06-21 00:01:00,
2013-06-20 20:06:00,70.3,56.3,30.30,South,182,2.0,2.0,61,0.00,,,0.00,meteobridge,2013-06-21 00:06:00,
2013-06-20 20:11:00,70.0,56.3,30.30,SW,224,6.9,8.9,62,0.00,,,0.00,meteobridge,2013-06-21 00:11:00,
2013-06-20 20:16:00,70.0,55.9,30.30,WSW,239,0.9,4.0,61,0.00,,,0.00,meteobridge,2013-06-21 00:16:00,
2013-06-20 20:21:00,69.8,55.2,30.30,West,270,0.0,6.9,60,0.00,,,0.00,meteobridge,2013-06-21 00:21:00,
2013-06-20 20:26:00,69.4,55.9,30.30,SE,142,0.9,4.9,62,0.00,,,0.00,meteobridge,2013-06-21 00:26:00,
2013-06-20 20:31:00,69.3,55.2,30.30,SSW,211,4.9,6.0,61,0.00,,,0.00,meteobridge,2013-06-21 00:31:00,
2013-06-20 20:37:00,69.3,55.8,30.30,SSE,157,0.9,4.9,62,0.00,,,0.00,meteobridge,2013-06-21 00:37:00,
2013-06-20 20:42:00,69.3,55.2,30.30,South,190,0.9,4.9,61,0.00,,,0.00,meteobridge,2013-06-21 00:42:00,
2013-06-20 20:47:00,69.1,55.0,30.30,SSW,198,0.9,6.9,61,0.00,,,0.00,meteobridge,2013-06-21 00:47:00,
2013-06-20 20:52:00,68.7,55.6,30.30,SSW,200,0.0,4.0,63,0.00,,,0.00,meteobridge,2013-06-21 00:52:00,
2013-06-20 20:57:00,68.5,55.4,30.30,SSW,204,0.0,4.0,63,0.00,,,0.00,meteobridge,2013-06-21 00:57:00,
2013-06-20 21:02:00,68.4,55.2,30.30,SW,225,0.9,4.0,63,0.00,,,0.00,meteobridge,2013-06-21 01:02:00,
2013-06-20 21:07:00,68.2,55.0,30.30,South,172,0.0,0.9,63,0.00,,,0.00,meteobridge,2013-06-21 01:07:00,
2013-06-20 21:12:00,68.0,55.4,30.31,SSW,205,0.9,0.9,64,0.00,,,0.00,meteobridge,2013-06-21 01:12:00,
2013-06-20 21:17:00,67.8,54.7,30.31,South,169,0.9,4.0,63,0.00,,,0.00,meteobridge,2013-06-21 01:17:00,
2013-06-20 21:23:00,67.6,54.7,30.31,South,178,2.0,2.0,63,0.00,,,0.00,meteobridge,2013-06-21 01:23:00,
2013-06-20 21:28:00,67.6,54.7,30.32,SW,226,0.9,2.0,63,0.00,,,0.00,meteobridge,2013-06-21 01:28:00,
2013-06-20 21:33:00,67.5,54.5,30.32,SSW,198,0.9,2.9,63,0.00,,,0.00,meteobridge,2013-06-21 01:33:00,
2013-06-20 21:38:00,67.3,54.7,30.32,SW,227,2.0,2.9,64,0.00,,,0.00,meteobridge,2013-06-21 01:38:00,
2013-06-20 21:43:00,66.9,54.9,30.32,SW,221,0.9,2.0,65,0.00,,,0.00,meteobridge,2013-06-21 01:43:00,
2013-06-20 21:48:00,66.7,55.0,30.32,SW,220,0.9,2.0,66,0.00,,,0.00,meteobridge,2013-06-21 01:48:00,
2013-06-20 21:53:00,66.7,55.0,30.32,SW,215,0.0,0.0,66,0.00,,,0.00,meteobridge,2013-06-21 01:53:00,
2013-06-20 21:58:00,66.6,55.2,30.32,SSE,156,0.0,6.9,67,0.00,,,0.00,meteobridge,2013-06-21 01:58:00,
2013-06-20 22:03:00,66.4,55.6,30.32,SSE,156,2.0,2.0,68,0.00,,,0.00,meteobridge,2013-06-21 02:03:00,
2013-06-20 22:09:00,66.0,55.2,30.32,South,175,0.9,0.9,68,0.00,,,0.00,meteobridge,2013-06-21 02:09:00,
2013-06-20 22:14:00,65.8,55.0,30.32,WSW,240,0.0,2.0,68,0.00,,,0.00,meteobridge,2013-06-21 02:14:00,
2013-06-20 22:19:00,65.7,54.9,30.32,WSW,244,4.9,4.9,68,0.00,,,0.00,meteobridge,2013-06-21 02:19:00,
2013-06-20 22:24:00,65.7,54.3,30.32,SW,217,2.0,6.0,67,0.00,,,0.00,meteobridge,2013-06-21 02:24:00,
2013-06-20 22:29:00,65.7,54.3,30.32,SW,235,0.9,4.9,67,0.00,,,0.00,meteobridge,2013-06-21 02:29:00,
2013-06-20 22:34:00,65.8,54.5,30.32,SW,235,0.9,2.0,67,0.00,,,0.00,meteobridge,2013-06-21 02:34:00,
2013-06-20 22:39:00,65.7,54.9,30.32,SW,234,2.0,2.0,68,0.00,,,0.00,meteobridge,2013-06-21 02:39:00,
2013-06-20 22:44:00,65.5,54.7,30.33,SW,234,0.0,0.9,68,0.00,,,0.00,meteobridge,2013-06-21 02:44:00,
2013-06-20 22:49:00,65.1,54.7,30.33,SW,234,2.0,2.0,69,0.00,,,0.00,meteobridge,2013-06-21 02:49:00,
2013-06-20 22:55:00,64.8,54.0,30.33,SSW,213,0.0,0.9,68,0.00,,,0.00,meteobridge,2013-06-21 02:55:00,
2013-06-20 23:00:00,64.6,53.8,30.33,SW,214,0.9,2.9,68,0.00,,,0.00,meteobridge,2013-06-21 03:00:00,
2013-06-20 23:05:00,64.6,53.4,30.32,South,190,0.0,0.9,67,0.00,,,0.00,meteobridge,2013-06-21 03:05:00,
2013-06-20 23:10:00,64.4,53.2,30.33,South,190,0.0,0.9,67,0.00,,,0.00,meteobridge,2013-06-21 03:10:00,
2013-06-20 23:15:00,64.0,53.2,30.33,SSW,198,0.0,0.9,68,0.00,,,0.00,meteobridge,2013-06-21 03:15:00,
2013-06-20 23:20:00,63.9,53.1,30.32,SW,236,0.9,4.0,68,0.00,,,0.00,meteobridge,2013-06-21 03:20:00,
2013-06-20 23:25:00,63.9,53.1,30.32,WSW,238,0.0,2.0,68,0.00,,,0.00,meteobridge,2013-06-21 03:25:00,
2013-06-20 23:30:00,63.7,53.2,30.33,WSW,238,0.9,2.0,69,0.00,,,0.00,meteobridge,2013-06-21 03:30:00,
2013-06-20 23:35:00,63.5,52.7,30.33,WSW,238,0.0,0.0,68,0.00,,,0.00,meteobridge,2013-06-21 03:35:00,
2013-06-20 23:40:00,63.3,53.1,30.33,WSW,238,0.0,0.9,69,0.00,,,0.00,meteobridge,2013-06-21 03:40:00,
2013-06-20 23:46:00,63.1,53.2,30.34,WSW,238,0.0,0.0,70,0.00,,,0.00,meteobridge,2013-06-21 03:46:00,
2013-06-20 23:51:00,63.0,53.1,30.34,WSW,238,0.0,0.0,70,0.00,,,0.00,meteobridge,2013-06-21 03:51:00,
2013-06-20 23:56:00,62.6,53.1,30.34,WSW,238,0.0,0.0,71,0.00,,,0.00,meteobridge,2013-06-21 03:56:00,